CZ-6A DEB

Satellite information

Favourite Embed

Satellite Type and Status

DEBRISIN ORBIT

Key statistics

Satellite CZ-6A DEB at a glance.

Uptime

495

Days in orbit

Revolutions

≈ 14.1

Per day

Orbit

LEO

Low Earth Orbit

Inclination

89.1

Latest

Satellite identification and parameters

Extended collection of information and parameters for CZ-6A DEB.

Object identification

Identified? True

Debris? True

Object name: CZ-6A DEB

International designator: 2024-140KZ

Object number (NORAD): 60894

Object ID (CCSDS): 60894

Country: PEOPLES REPUBLIC OF CHINA (PRC)

Current information (Y/N): Y

RCS size: SMALL

Orbital parameters

Period: 101.828 minutes

Inclination: 89.056 deg

SMA: 7223.359 km

Apoapsis: 901.367 km

Periapsis: 789.08 km

RAAN: 299.5479 deg

Eccentricy: 0.00777253

Argument of periapsis: 105.7038 deg

Mean anomaly: 255.274 deg

Mean motion: 14.14145183 rev/day

Mean motion (dot): 0.00001191 rev/day2

B* drag term: 0.00060036624 1/REarth

Two-line elements (TLE)

Creation date: Dec. 12, 2025, 10:14 a.m.

Reference frame: TEME

Reference center: EARTH

Epoch: Dec. 11, 2025, 10:13 p.m. UTC

TLE line 0: 0 CZ-6A DEB

TLE line 1: 1 60894U 24140KZ 25345.92637775 .00001191 00000-0 60037-3 0 9994

TLE line 2: 2 60894 89.0560 299.5479 0077725 105.7038 255.2740 14.14145183 67846

Live tracking on map

Real-time ground track for satellite CZ-6A DEB.

In-orbit conjunctions

A list of the most updated potential collisions computed for object CZ-6A DEB.

Target Orbit TCA Probability of collision Miss distance Type
DELTA 1 DEB SSO 2025-07-04 11:33:35 0.0002093307 780.0 (m) DEBRIS
FENGYUN 1C DEB SSO 2025-05-07 17:50:01 0.0002097335 113.0 (m) DEBRIS
FENGYUN 1C DEB SSO 2025-03-27 15:05:33 0.0001103144 27.0 (m) DEBRIS
CZ-6A DEB LEO 2024-12-28 23:23:38 0.0003823913 931.0 (m) DEBRIS
FENGYUN 1C DEB SSO 2024-10-19 15:03:11 0.0001464748 207.0 (m) DEBRIS

Associated space launch

18 Low Earth Orbit communication satellites with Ku, Q and V band payloads for the G60 constellation operated by Shanghai Spacecom Satellite Technology (SSST) with funding backed by the Shanghai local government. Initial constellation will consist of 1296 satellites by 2027 with long term plans to expand it to 12000 satellites.

CZ-6A DEB was lifted into orbit during the mission ‘Long March 6A | G60 Polar Group 01’, on board a Long March 6A space rocket.

The launch took place on Aug. 6, 2024, 6:42 a.m. from Launch Complex 9A.

For more information about the launch, click the button.

Launch to space Long March 6A | G60 Polar Group 01
Long March 6A | G60 Polar Group 01

Agency: N/A

Status: Launch Successful

Launch date: Aug. 6, 2024, 6:42 a.m. UTC

Rocket: Long March 6A

Launch pad: Launch Complex 9A

Location: Taiyuan Satellite Launch Center, People's Republic of China

...

Latest news about this satellite

News about space launch
Brightness of first Chinese broadband constellation satellites alarms astronomers

The first satellites of a Chinese broadband constellation are significantly brighter than those of Western systems, posing a new challenge for astronomers.

News about space launch
Chinese rocket stage breaks up into cloud of more than 700 pieces of space debris

HELSINKI — A Chinese Long March 6A rocket’s upper stage has fragmented into a cloud of over 700 pieces of space debris, adding to concerns about long-term orbital safety. China […]

News about space launch
China's Thousand Sails Megaconstellation Kicks Off with Dangerous Debris Field

China's Thousand Sails Megaconstellation Kicks Off with Dangerous Debris Field


Newsletter sign-up

Weekly statistics, charts and insights to help you stay on top of the space industry.